This demonstration page uses our WeatherBlox Daily Observations layout. Learn more.

Left ArrowRight Arrow

36.19886, -115.1175

Hourly Observations for March 19, 2017

Temp ( °F °C ) Dew Point ( °F °C ) Humidity (%) Winds ( mph kmh ) Pressure ( in mb ) Visibility ( mi km ) Precip ( " mm )
12:53 am 00:53 Clear 70 21.1 33 0.6 26 26 SE 3 6 30.00 1016 10 16 N/A
1:53 am 01:53 Clear 68 20 33 0.6 27 27 SE 6 9 30.01 1016 10 16 N/A
2:53 am 02:53 Clear 70 21.1 33 0.6 26 26 SSE 3 6 29.99 1016 10 16 N/A
3:53 am 03:53 Clear 65 18.3 34 1.1 32 32 NW 5 7 30.00 1016 10 16 N/A
4:53 am 04:53 Clear 63 17.2 36 2.2 37 37 WNW 3 6 30.02 1017 10 16 N/A
5:53 am 05:53 Clear 60 15.6 36 2.2 41 41 N 3 6 30.04 1017 10 16 N/A
6:53 am 06:53 Sunny 60 15.6 36 2.2 41 41 NW 3 6 30.07 1018 10 16 N/A
7:53 am 07:53 Sunny 63 17.2 36 2.2 37 37 N 3 6 30.09 1019 10 16 N/A
8:53 am 08:53 Sunny 69 20.6 34 1.1 27 27 E 6 9 30.10 1019 10 16 N/A
9:53 am 09:53 Sunny 73 22.8 29 -1.7 19 19 SE 6 9 30.10 1019 10 16 N/A
10:53 am 10:53 Sunny 76 24.4 29 -1.7 18 18 SE 6 9 30.09 1019 10 16 N/A
11:53 am 11:53 Sunny 80 26.7 29 -1.7 15 15 SE 6 9 30.08 1019 10 16 N/A
12:53 pm 12:53 Sunny 84 28.9 28 -2.2 13 13 undefined N/A 30.05 1018 10 16 N/A
1:53 pm 13:53 Sunny 86 30 27 -2.8 12 12 ENE 8 13 30.01 1016 10 16 N/A
2:53 pm 14:53 Sunny 88 31.1 26 -3.3 10 10 SW 7 11 29.98 1015 10 16 N/A
3:53 pm 15:53 Sunny 88 31.1 27 -2.8 11 11 S 10 17 29.97 1015 10 16 N/A
4:53 pm 16:53 Sunny 87 30.6 30 -1.1 13 13 SE 6 9 29.96 1015 10 16 N/A
5:53 pm 17:53 Sunny 86 30 30 -1.1 13 13 W 13 20 29.97 1015 10 16 N/A
6:53 pm 18:53 Clear 84 28.9 31 -0.6 15 15 WSW 9 15 29.97 1015 10 16 N/A
7:53 pm 19:53 Clear 82 27.8 31 -0.6 16 16 W 6 9 29.98 1015 10 16 N/A
8:53 pm 20:53 Clear 78 25.6 33 0.6 19 19 SW 6 9 29.98 1015 10 16 N/A
9:53 pm 21:53 Clear 76 24.4 34 1.1 22 22 WSW 6 9 29.99 1016 10 16 N/A
10:53 pm 22:53 Clear 73 22.8 34 1.1 24 24 N N/A 29.99 1016 10 16 N/A
11:53 pm 23:53 Clear 75 23.9 33 0.6 22 22 SW 6 9 29.99 1016 10 16 N/A

Powered by AerisWeather